DW1282 Weather Reports


time (UTC)temp
C
wind
direction
speed
KPH
gust
KPH
rain 1hr
cm
rain 24hr
cm
rain mn
cm
humidity
%
barometer
mb
20260508193102 8 28 8.0 16.1 0.00 1.55 0.00 84 1001.8
20260508191552 8 18 9.7 17.7 0.00 1.55 0.00 83 1001.7
20260508190151 8 18 11.3 17.7 0.00 1.55 0.00 83 1001.6
20260508184552 9 13 9.7 20.9 0.00 1.91 0.00 80 1001.5
20260508183111 9 23 11.3 17.7 0.00 1.91 0.00 80 1001.5
20260508181609 10 56 9.7 24.1 0.00 1.91 0.00 79 1001.6
20260508180052 10 46 9.7 20.9 0.00 1.91 0.00 80 1001.7
20260508174550 10 55 9.7 22.5 0.00 1.91 0.00 81 1001.6
20260508173048 9 55 9.7 17.7 0.00 1.91 0.00 79 1001.6
20260508171551 9 35 8.0 14.5 0.00 1.91 0.00 82 1001.9
20260508170042 8 23 6.4 14.5 0.00 1.91 0.00 86 1002.0
20260508164541 7 23 4.8 14.5 0.00 1.91 0.00 87 1001.9
20260508163046 7 23 3.2 12.9 0.00 1.91 0.00 87 1001.9
20260508161541 7 23 8.0 14.5 0.00 1.91 0.00 87 1001.9
20260508160041 8 23 4.8 14.5 0.00 1.91 0.00 86 1001.9
20260508154539 8 23 4.8 12.9 0.00 1.91 0.00 89 1001.9
20260508153039 7 23 4.8 12.9 0.00 1.91 0.00 88 1001.8
20260508151544 7 23 4.8 14.5 0.00 1.91 0.00 87 1001.8
20260508150043 7 31 9.7 16.1 0.00 1.91 0.00 87 1002.0
20260508144545 7 32 9.7 17.7 0.00 1.91 0.00 88 1002.1
20260508143046 8 34 9.7 16.1 0.00 1.91 0.00 87 1002.0
20260508141536 8 23 6.4 19.3 0.00 1.91 0.00 88 1002.5
20260508140042 8 6 9.7 17.7 0.00 1.91 0.00 88 1002.6
20260508134534 8 18 11.3 16.1 0.00 1.91 0.00 86 1002.8
20260508133039 8 29 6.4 17.7 0.00 1.91 0.00 89 1002.9
20260508131534 8 18 6.4 16.1 0.00 1.91 0.00 89 1002.6
20260508130031 7 27 4.8 14.5 0.00 1.91 0.00 91 1002.3
20260508124530 6 32 6.4 14.5 0.00 1.93 0.00 92 1002.3
20260508123032 7 29 6.4 14.5 0.00 1.93 0.00 92 1002.4
20260508121529 7 28 9.7 17.7 0.00 1.93 0.00 94 1002.3
20260508120027 7 353 6.4 12.9 0.00 1.93 0.00 98 1002.5
20260508114533 6 350 4.8 9.7 0.00 1.93 0.00 100 1002.8
20260508113041 6 348 4.8 9.7 0.00 1.93 0.00 100 1002.3
20260508111525 5 348 4.8 9.7 0.00 1.93 0.00 100 1002.5
20260508110020 4 348 1.6 6.4 0.00 1.93 0.00 100 1002.5
20260508104519 4 348 3.2 4.8 0.00 1.93 0.00 100 1002.8
20260508103017 4 348 0.0 0.0 0.00 1.93 0.00 100 1002.9
20260508101516 4 348 0.0 0.0 0.00 1.93 0.00 100 1002.7
20260508100013 3 348 0.0 0.0 0.00 1.93 0.00 100 1002.8
20260508094511 3 348 0.0 0.0 0.00 1.93 0.00 100 1002.4
20260508093013 3 348 0.0 0.0 0.00 1.93 0.00 100 1002.4
20260508091507 3 348 0.0 0.0 0.00 1.93 0.00 100 1002.2
20260508090005 3 348 0.0 3.2 0.00 1.93 0.00 100 1002.4
20260508084504 3 348 0.0 0.0 0.00 2.08 0.00 100 1002.4
20260508083001 3 348 0.0 3.2 0.00 2.08 0.00 100 1001.9
20260508081616 3 348 3.2 6.4 0.00 2.08 0.00 100 1001.8
20260508080059 3 348 1.6 8.0 0.00 2.08 0.00 100 1001.7
20260508074600 3 348 0.0 4.8 0.00 2.08 0.00 100 1001.9
20260508073105 3 348 0.0 4.8 0.00 2.08 0.00 100 1001.9
20260508071556 3 348 3.2 6.4 0.00 2.08 0.00 100 1002.0
20260508070059 4 348 3.2 9.7 0.00 2.08 0.00 100 1001.9
20260508064604 4 348 3.2 9.7 0.00 2.08 0.00 100 1001.9
20260508063050 5 347 4.8 8.0 0.00 2.08 0.00 100 1001.9
20260508061556 5 347 3.2 9.7 0.00 2.08 0.00 100 1002.1
20260508060047 6 347 6.4 16.1 0.00 2.08 0.00 100 1001.8
20260508054603 6 256 4.8 9.7 0.00 2.08 0.00 100 1002.0
20260508053035 6 256 3.2 6.4 0.00 2.08 0.00 100 1001.9
20260508051533 7 256 1.6 6.4 0.00 2.08 0.00 100 1001.4
20260508050036 7 256 1.6 4.8 0.00 2.08 0.00 100 1001.3
20260508044527 8 256 0.0 0.0 0.00 2.08 0.00 100 1001.5
20260508043031 8 256 0.0 9.7 0.00 2.08 0.00 100 1001.6
20260508041521 8 250 1.6 3.2 0.00 2.08 0.00 100 1001.7
20260508040020 8 250 0.0 6.4 0.00 2.08 0.00 100 1001.6
20260508034524 8 250 1.6 6.4 0.00 2.08 0.00 100 1001.9
20260508033016 8 250 3.2 9.7 0.00 2.08 0.00 100 1001.9
20260508031515 8 250 4.8 6.4 0.00 2.08 0.00 100 1002.0
20260508030012 8 250 3.2 11.3 0.00 2.08 0.00 100 1002.0
20260508024513 8 245 4.8 11.3 0.00 2.08 2.08 100 1002.0
20260508023012 9 242 4.8 12.9 0.00 2.08 2.08 100 1001.5
20260508021509 9 202 3.2 6.4 0.00 2.08 2.08 100 1001.7
20260508020012 10 202 0.0 9.7 0.00 2.08 2.08 100 1001.8
20260508014509 9 201 0.0 6.4 0.00 2.08 2.08 100 1001.7
20260508013008 9 201 0.0 6.4 0.00 2.08 2.08 100 1001.6
20260508011509 9 201 1.6 9.7 0.00 2.08 2.08 100 1001.5
20260508010020 9 202 3.2 9.7 0.00 2.08 2.08 100 1002.0
20260508004506 8 202 3.2 9.7 0.00 2.08 2.08 100 1001.9
20260508003006 8 202 3.2 11.3 0.00 2.08 2.08 100 1001.8
20260508001508 8 187 3.2 14.5 0.00 2.08 2.08 100 1001.8
20260508000006 9 203 1.6 12.9 0.00 2.08 2.08 100 1002.1
20260507234508 9 199 4.8 19.3 0.00 2.08 2.08 99 1001.9
20260507233005 9 197 4.8 17.7 0.00 2.08 2.08 99 1002.0
20260507231503 9 191 8.0 19.3 0.00 2.08 2.08 99 1002.5
20260507230003 10 192 6.4 17.7 0.00 2.08 2.08 99 1002.3
20260507224503 10 191 8.0 24.1 0.00 2.08 2.08 99 1002.7
20260507223002 10 221 6.4 16.1 0.00 2.08 2.08 98 1002.4
20260507221501 10 195 8.0 27.4 0.00 2.08 2.08 99 1002.6
20260507220100 10 218 12.9 30.6 0.00 2.08 2.08 99 1002.7
20260507214600 9 256 9.7 22.5 0.08 2.08 2.08 99 1002.9
20260507213059 9 214 9.7 32.2 0.23 2.08 2.08 99 1002.4
20260507211601 9 196 12.9 32.2 0.43 2.08 2.08 99 1001.8
20260507210053 9 183 12.9 29.0 0.61 2.08 2.08 99 1002.4
20260507204550 10 179 8.0 17.7 0.79 2.01 2.01 99 1003.4
20260507203048 10 187 8.0 19.3 0.99 1.83 1.83 99 1003.7
20260507201545 10 184 8.0 16.1 0.99 1.65 1.65 98 1004.0
20260507200042 10 233 3.2 24.1 0.97 1.45 1.45 99 1004.8
20260507194541 10 250 8.0 25.7 0.79 1.17 1.17 98 1005.0